TimeMST,TemperatureF,Dew PointF,Humidity,Sea Level PressureIn,VisibilityMPH,Wind Direction,Wind SpeedMPH,Gust SpeedMPH,PrecipitationIn,Events,Conditions,WindDirDegrees,DateUTC
12:53 AM,41.0,21.0,45,30.04,10.0,WSW,29.9,38.0,N/A,,Clear,250,2012-12-05 07:53:00
1:53 AM,41.0,21.9,47,30.03,10.0,SSW,10.4,25.3,N/A,,Clear,210,2012-12-05 08:53:00
2:53 AM,39.0,23.0,53,30.02,10.0,WSW,19.6,-,N/A,,Clear,240,2012-12-05 09:53:00
3:53 AM,41.0,25.0,53,29.99,10.0,WSW,21.9,29.9,N/A,,Clear,240,2012-12-05 10:53:00
4:53 AM,41.0,26.1,55,30.01,10.0,SW,16.1,-,N/A,,Clear,230,2012-12-05 11:53:00
5:53 AM,41.0,26.1,55,30.03,10.0,WSW,15.0,-,N/A,,Scattered Clouds,240,2012-12-05 12:53:00
7:53 AM,41.0,25.0,53,29.99,10.0,SW,18.4,-,N/A,,Clear,230,2012-12-05 14:53:00
8:53 AM,44.1,25.0,47,29.95,10.0,SW,11.5,-,N/A,,Clear,230,2012-12-05 15:53:00
9:53 AM,48.9,25.0,39,29.89,10.0,SW,19.6,29.9,N/A,,Clear,220,2012-12-05 16:53:00
10:53 AM,53.1,21.9,30,29.86,10.0,SW,20.7,27.6,N/A,,Clear,230,2012-12-05 17:53:00
11:53 AM,54.0,21.0,28,29.82,10.0,WSW,26.5,36.8,N/A,,Clear,250,2012-12-05 18:53:00
1:53 PM,53.1,17.1,24,29.75,10.0,West,33.4,43.7,N/A,,Scattered Clouds,260,2012-12-05 20:53:00
2:53 PM,51.1,18.0,27,29.77,10.0,West,28.8,35.7,N/A,,Clear,260,2012-12-05 21:53:00
3:53 PM,48.9,18.0,29,29.82,10.0,West,23.0,29.9,N/A,,Mostly Cloudy,260,2012-12-05 22:53:00
4:53 PM,45.0,21.0,39,29.86,10.0,WSW,13.8,-,N/A,,Mostly Cloudy,250,2012-12-05 23:53:00
5:53 PM,44.1,23.0,43,29.86,10.0,West,19.6,26.5,N/A,,Overcast,270,2012-12-06 00:53:00
6:53 PM,42.1,23.0,47,29.91,10.0,NW,12.7,-,N/A,,Overcast,310,2012-12-06 01:53:00
7:53 PM,43.0,23.0,45,29.88,10.0,West,19.6,24.2,N/A,,Overcast,260,2012-12-06 02:53:00
8:53 PM,42.1,24.1,49,29.85,10.0,West,13.8,21.9,N/A,,Mostly Cloudy,260,2012-12-06 03:53:00
9:53 PM,42.1,26.1,53,29.82,10.0,West,20.7,26.5,N/A,,Mostly Cloudy,260,2012-12-06 04:53:00
10:53 PM,39.9,25.0,55,29.78,10.0,SW,25.3,-,N/A,,Scattered Clouds,230,2012-12-06 05:53:00
11:53 PM,41.0,25.0,53,29.77,10.0,WSW,25.3,31.1,N/A,,Clear,250,2012-12-06 06:53:00